CDT,Max TemperatureF,Mean TemperatureF,Min TemperatureF,Max Dew PointF,MeanDew PointF,Min DewpointF,Max Humidity, Mean Humidity, Min Humidity, Max Sea Level PressureIn, Mean Sea Level PressureIn, Min Sea Level PressureIn, Max VisibilityMiles, Mean VisibilityMiles, Min VisibilityMiles, Max Wind SpeedMPH, Mean Wind SpeedMPH, Max Gust SpeedMPH,PrecipitationIn, CloudCover, Events, WindDirDegrees
2013-3-1,52,38,24,30,25,20,92,61,30,30.25,30.20,30.13,10,8,2,20,6,29,0.00,1,,331
2013-3-2,50,38,26,24,19,15,85,56,26,30.36,30.28,30.23,10,10,8,17,6,23,0.00,2,,333
2013-3-3,62,43,24,32,26,22,88,58,27,30.25,30.08,29.87,10,10,7,14,4,20,0.00,0,,126
2013-3-4,77,62,47,50,44,33,83,58,33,29.86,29.70,29.60,10,10,10,16,7,28,0.00,2,,166
2013-3-5,59,45,31,42,26,18,83,54,24,30.31,30.16,29.80,10,10,8,23,11,35,T,2,,318
2013-3-6,62,42,22,32,24,13,92,54,15,30.42,30.31,30.23,10,8,2,13,2,14,0.00,0,,213
2013-3-7,64,50,35,34,30,28,82,55,27,30.34,30.25,30.17,10,9,3,13,6,18,0.00,0,,95
2013-3-8,64,52,40,41,36,32,73,54,34,30.28,30.18,30.07,10,10,8,15,7,20,T,4,Rain,90
2013-3-9,67,60,52,57,50,37,78,63,47,30.06,29.88,29.75,10,8,6,17,9,27,T,7,Rain,134
2013-3-10,65,52,39,59,47,27,96,76,55,30.00,29.80,29.67,10,8,2,22,10,28,0.36,8,Rain,280
2013-3-11,55,43,30,29,26,21,85,57,28,30.07,30.02,29.96,10,10,10,18,7,23,0.00,1,,289
2013-3-12,66,47,27,37,29,21,100,62,24,30.28,30.17,30.07,10,10,8,12,3,15,0.00,0,,294
2013-3-13,66,49,31,36,27,17,96,57,18,30.45,30.38,30.30,10,10,2,13,3,19,0.00,0,,37
2013-3-14,74,53,31,43,36,29,89,59,29,30.40,30.28,30.17,10,10,8,18,5,23,0.00,0,,230
2013-3-15,81,60,39,52,45,38,100,64,28,30.17,30.04,29.89,10,9,3,23,6,32,0.00,0,,222
2013-3-16,80,62,44,54,49,43,100,69,37,29.90,29.83,29.72,10,9,5,16,5,25,0.00,0,,182
2013-3-17,76,64,52,59,56,51,93,73,53,29.80,29.73,29.61,10,10,6,17,6,25,T,7,,184
2013-3-18,67,54,40,54,48,36,93,64,34,30.03,29.79,29.67,10,6,0,16,4,23,0.10,4,Fog-Rain,1
2013-3-19,63,49,34,40,35,29,100,64,27,30.16,30.07,30.01,10,5,0,17,6,22,0.00,1,Fog,77
2013-3-20,64,48,32,33,28,23,89,55,21,30.30,30.19,30.07,10,10,10,16,4,22,0.00,0,,32
2013-3-21,48,43,37,38,30,20,85,61,37,30.04,29.91,29.78,10,9,3,20,11,26,0.14,6,Rain,92
2013-3-22,47,43,39,45,41,36,96,91,85,29.85,29.80,29.74,10,4,1,17,10,24,0.02,8,Rain,78
2013-3-23,50,47,44,47,45,41,93,90,86,29.89,29.78,29.67,9,4,1,16,6,22,0.02,8,Rain,90
2013-3-24,49,43,36,47,37,22,93,71,49,30.12,29.86,29.70,10,8,1,28,13,39,0.30,6,Rain,298
2013-3-25,49,38,26,24,20,17,81,55,29,30.37,30.25,30.14,10,10,10,24,8,34,0.00,0,,311
2013-3-26,53,38,22,30,23,18,92,59,26,30.47,30.37,30.31,10,6,2,15,3,18,0.00,3,,282
2013-3-27,64,45,26,35,27,24,100,61,22,30.38,30.30,30.16,10,5,1,15,6,20,0.00,0,,115
2013-3-28,71,55,39,51,43,32,85,66,47,30.27,30.20,30.12,10,10,9,14,5,18,0.00,5,,126
2013-3-29,71,63,55,61,56,49,100,78,56,30.19,30.13,30.06,10,5,0,14,4,18,0.08,7,Fog-Rain,83
2013-3-30,66,61,55,60,57,55,100,87,73,30.10,29.99,29.91,10,4,0,16,3,21,0.12,6,Fog-Rain,80
2013-3-31,75,62,49,59,55,48,100,77,53,29.98,29.91,29.86,10,7,2,14,4,21,0.40,5,Rain,2